Regional Weather Roundup
Issued by NWS

Home | Current Version | Previous Version | Text Only | Print | Product List | Glossary On
Versions: 1 2 3 4 5 6 7 8 9 10 11 12 13 14 15 16 17 18 19 20 21 22 23 24 25 26 27 28 29 30 31 32 33 34 35 36 37 38 39 40 41 42 43 44 45 46 47 48 49
000
ASUS42 KFFC 201103
RWRGA
WEATHER ROUNDUP FOR GEORGIA
NATIONAL WEATHER SERVICE PEACHTREE CITY GA
700 AM EDT MON OCT 20 2014

NOTE: "FAIR" INDICATES FEW OR NO CLOUDS BELOW 12,000 FEET WITH NO
SIGNIFICANT WEATHER AND/OR OBSTRUCTIONS TO VISIBILITY.

* = USE WITH CAUTION. THE STATIONS MARKED WITH AN ASTERISK MAY NOT
REPORT WEATHER SUCH AS PRECIPITATION, FOG, OR THUNDER AND ARE NOT
QUALITY CONTROLLED BY NWS.

THE REMARK "TC" DENOTES TEMPERATURE READING IN DEGREES CELSIUS.

GAZ001>058-201200-
NORTH GEORGIA

CITY           SKY/WX    TMP DP  RH WIND       PRES   REMARKS
ATLANTA        CLEAR     52  47  83 CALM      30.10F
ATHENS         CLEAR     44  42  93 CALM      30.12S
CHAMBLEE       CLEAR     46  43  89 CALM      30.11S
PEACHTREE CITY CLEAR     43  41  93 CALM      30.11S
ROME           FOG       42  41  96 CALM      30.10F VSB 3/4
WEST ATLANTA   CLEAR     45  43  93 CALM      30.11S
GAINESVILLE    CLEAR     48  45  89 N3        30.13S
CARTERSVILLE   CLEAR     45  43  93 CALM      30.11S


CITY           SKY/WX    TMP DP  RH WIND       PRES   REMARKS
DALTON*        CLEAR     41  41 100 CALM      30.10S
LAWRENCEVILLE* CLEAR     45  37  76 CALM      30.10
KENNESAW*      CLEAR     46  45  93 CALM      30.12
$$

GAZ059>098-102>109-201200-
CENTRAL GEORGIA

CITY           SKY/WX    TMP DP  RH WIND       PRES   REMARKS
AUGUSTA-BUSH   CLEAR     40  39  97 CALM      30.14S
AUGUSTA-DANIEL CLEAR     52  49  89 CALM      30.14R
COLUMBUS       CLEAR     51  47  86 CALM      30.09S
MACON          CLEAR     42  42 100 W3        30.11R
ROBINS AFB     CLEAR     45  44  97 NW5       30.11R


CITY           SKY/WX    TMP DP  RH WIND       PRES   REMARKS
LAGRANGE*      CLEAR     46  46  99 CALM      30.10S FOG
SYLVANIA*      CLEAR     50  49  98 CALM      30.13S
MILLEDGEVILLE* CLEAR     46  46 100 CALM      30.12R
$$

GAZ099>101-110>166-201200-
SOUTH GEORGIA

CITY           SKY/WX    TMP DP  RH WIND       PRES   REMARKS
SAVANNAH       CLEAR     54  50  86 CALM      30.11R
VALDOSTA       CLOUDY    57  51  80 CALM      30.07S
ALMA           CLEAR     47  46  97 CALM      30.09R FOG
ST SIMONS      PTCLDY    55  55 100 CALM      30.07S
FT STEWART     CLEAR     50  47  92 CALM      30.09R
ALBANY         CLEAR     50  48  93 CALM      30.11R
HUNTER AFB     CLEAR     55  51  88 N3        30.08S
MOODY AFB      MOCLDY    54  52  92 NE3       30.08R
BRUNSWICK      PTCLDY    54  52  94 CALM      30.08S


CITY           SKY/WX    TMP DP  RH WIND       PRES   REMARKS
BAINBRIDGE*    CLEAR     54  52  94 CALM      30.08R
MOULTRIE*      PTCLDY    55  54  94 CALM      30.09R
VIDALIA*       CLEAR     50  50 100 CALM      30.11S
WAYCROSS*      MOCLDY    53  53  98 CALM      30.09S
DOUGLAS*       PTCLDY    54  52  94 CALM      30.11R
$$



USA.gov is the U.S. government's official web portal to all federal, state and local government web resources and services.